This demonstration page uses our WeatherBlox Daily Observations layout. Learn more.

Left ArrowRight Arrow

Hourly Observations for May 24, 2017

Temp ( °F °C ) Dew Point ( °F °C ) Humidity (%) Winds ( mph kmh ) Pressure ( in mb ) Visibility ( mi km ) Precip ( " mm )
12:11 am 00:11 Cloudy with Rain 64 17.8 64 17.8 100 100 SSE 5 7 29.68 1005 4 6 0.05 1.27
12:53 am 00:53 Cloudy with Light Rain 64 17.8 63 17.2 96 96 Calm 29.67 1005 9 14 0.06 1.52
1:31 am 01:31 Cloudy 64 17.8 64 17.8 100 100 Calm 29.65 1004 10 16 0.01 0.25
1:53 am 01:53 Cloudy 64 17.8 64 17.8 100 100 W 3 6 29.66 1004 10 16 0.01 0.25
2:49 am 02:49 Cloudy 64 18 64 18 100 100 Calm 29.62 1003 10 16 0.00 0.00
2:53 am 02:53 Cloudy 64 17.8 64 17.8 100 100 Calm 29.63 1004 10 16 0.00 0.00
3:53 am 03:53 Cloudy 65 18.3 64 17.8 97 97 Calm 29.62 1003 10 16 0.00 0.00
4:12 am 04:12 Cloudy 65 18.3 64 17.8 97 97 Calm 29.59 1002 10 16 0.00 0.00
4:53 am 04:53 Cloudy with Light Rain 65 18.3 65 18.3 100 100 W 3 6 29.60 1003 10 16 0.00 0.03
5:53 am 05:53 Cloudy 65 18.3 65 18.3 100 100 Calm 29.59 1002 10 16 0.00 0.03
6:53 am 06:53 Cloudy 67 19.4 67 19.4 100 100 S 5 7 29.59 1002 10 16 0.00 0.03
7:53 am 07:53 Mostly Cloudy 67 19.4 67 19.4 100 100 SSW 5 7 29.56 1001 10 16 0.00 0.03
8:31 am 08:31 Cloudy 67 19.4 66 18.9 97 97 VRB 7 11 29.56 1001 10 16 0.00 0.00
8:53 am 08:53 Cloudy 67 19.4 66 18.9 97 97 S 6 9 29.55 1001 10 16 0.00 0.00
9:11 am 09:11 Cloudy 67 19.4 66 18.9 97 97 S 8 13 29.56 1001 10 16 0.00 0.00
9:41 am 09:41 Cloudy 68 20 66 18.9 93 93 S 8 13 29.53 1000 10 16 0.00 0.00
9:53 am 09:53 Cloudy 68 20 66 18.9 93 93 S 9 15 29.54 1001 10 16 0.00 0.00
10:53 am 10:53 Cloudy 69 20.6 66 18.9 90 90 S 9 15 29.54 1000 10 16 0.00 0.00
11:53 am 11:53 Cloudy 71 21.7 66 18.9 84 84 S 8 13 29.54 1000 10 16 0.00 0.00
12:50 pm 12:50 Mostly Cloudy 75 24 64 18 69 69 SSW 12 19 29.50 999 10 16 0.00 0.00
12:53 pm 12:53 Mostly Cloudy 76 24.4 65 18.3 69 69 SSW 10 17 29.50 999 10 16 0.00 0.00
1:53 pm 13:53 Mostly Cloudy 75 23.9 63 17.2 66 66 WSW 13 20 29.48 998 10 16 0.00 0.00
2:53 pm 14:53 Mostly Cloudy 79 26.1 62 16.7 56 56 SW 16 26 29.47 998 10 16 0.00 0.03
3:53 pm 15:53 Partly Cloudy 76 24.4 57 13.9 52 52 WSW 13 20 29.47 998 10 16 0.01 0.25
4:53 pm 16:53 Mostly Cloudy 76 24.4 58 14.4 54 54 W 10 17 29.47 998 10 16 0.00 0.00
5:53 pm 17:53 Partly Cloudy 76 24.4 54 12.2 47 47 WSW 13 20 29.47 998 10 16 0.00 0.00
6:53 pm 18:53 Mostly Sunny 74 23.3 55 12.8 52 52 W 10 17 29.46 998 10 16 0.00 0.00
7:53 pm 19:53 Mostly Sunny 70 21.1 56 13.3 61 61 NW 17 28 29.49 999 10 16 0.00 0.00
8:53 pm 20:53 Clear 66 18.9 54 12.2 65 65 WNW 9 15 29.52 1000 10 16 0.00 0.00
9:53 pm 21:53 Cloudy 64 17.8 53 11.7 68 68 WNW 9 15 29.54 1000 10 16 0.00 0.00
10:53 pm 22:53 Partly Cloudy 62 16.7 55 12.8 78 78 W 6 9 29.56 1001 10 16 0.00 0.00
11:53 pm 23:53 Partly Cloudy 62 16.7 55 12.8 78 78 W 7 11 29.58 1002 10 16 0.00 0.00

Powered by AerisWeather